Location: Clandonald
(53.5720°N, 110.7141°W)
Time: 21:44:01
(UTC+00:00)

Envisat - Pass Details

Date: 23 October 2019
Orbit: 764 x 766 km, 98.1° (Epoch: 16 November)

Event Time Altitude Azimuth Distance (km) Brightness Sun altitude
Rises 12:41:00 0° 29° (NNE) 3,246 6.6 -13.0°
Reaches altitude 10° 12:45:04 10° 61° (ENE) 2,311 6.4 -12.4°
Maximum altitude 12:46:51 12° 82° (E) 2,189 6.7 -12.2°
Drops below altitude 10° 12:48:39 10° 103° (ESE) 2,305 6.9 -11.9°
Sets 12:52:40 0° 135° (SE) 3,223 7.1 -11.3°
